This demonstration page uses our WeatherBlox Daily Observations layout. Learn more.

Left ArrowRight Arrow

38.20091, -84.87328

Hourly Observations for February 15, 2022

Temp ( °F °C ) Dew Point ( °F °C ) Humidity (%) Winds ( mph kmh ) Pressure ( in mb ) Visibility ( mi km ) Precip ( " mm )
12:53 am 00:53 Clear 20 -6.7 14 -10 78 78 Calm 30.43 1030 10 16 0.00 0.00
1:53 am 01:53 Clear 20 -6.7 15 -9.4 81 81 Calm 30.42 1030 10 16 0.00 0.00
2:53 am 02:53 Clear 18 -7.8 14 -10 84 84 Calm 30.42 1030 10 16 0.00 0.00
3:53 am 03:53 Clear 18 -7.8 14 -10 84 84 Calm 30.42 1030 10 16 0.00 0.00
4:53 am 04:53 Clear 17 -8.3 14 -10 88 88 Calm 30.43 1031 10 16 0.00 0.00
5:53 am 05:53 Clear 18 -7.8 14 -10 84 84 Calm 30.44 1031 10 16 0.00 0.00
6:53 am 06:53 Clear 17 -8.3 13 -10.6 84 84 Calm 30.46 1031 10 16 0.00 0.00
7:53 am 07:53 Sunny 19 -7.2 15 -9.4 84 84 Calm 30.47 1032 8 13 0.00 0.00
8:53 am 08:53 Sunny 27 -2.8 20 -6.7 75 75 E 3 6 30.47 1032 10 16 0.00 0.00
9:53 am 09:53 Sunny 33 0.6 21 -6.1 61 61 E 3 6 30.47 1032 10 16 0.00 0.00
10:53 am 10:53 Sunny 42 5.6 23 -5 47 47 VRB 5 7 30.46 1032 10 16 0.00 0.00
11:53 am 11:53 Sunny 48 8.9 23 -5 37 37 ESE 7 11 30.45 1031 10 16 0.00 0.00
12:53 pm 12:53 Sunny 52 11.1 22 -5.6 31 31 SSE 8 13 30.41 1030 10 16 0.00 0.00
1:53 pm 13:53 Sunny 55 12.8 24 -4.4 30 30 S 7 11 30.37 1029 10 16 0.00 0.00
2:53 pm 14:53 Sunny 57 13.9 25 -3.9 29 29 SSE 8 13 30.35 1028 10 16 0.00 0.00
3:53 pm 15:53 Sunny 59 15 26 -3.3 28 28 SSE 7 11 30.33 1027 10 16 0.00 0.00
4:53 pm 16:53 Sunny 60 15.6 27 -2.8 28 28 SE 5 7 30.31 1026 10 16 0.00 0.00
5:53 pm 17:53 Sunny 58 14.4 27 -2.8 31 31 Calm 30.30 1026 10 16 0.00 0.00
6:53 pm 18:53 Clear 49 9.4 28 -2.2 44 44 ESE 3 6 30.30 1026 10 16 0.00 0.00
7:53 pm 19:53 Clear 47 8.3 29 -1.7 50 50 SE 6 9 30.30 1026 10 16 0.00 0.00
8:53 pm 20:53 Clear 49 9.4 28 -2.2 44 44 SSE 3 6 30.29 1026 10 16 0.00 0.00
9:53 pm 21:53 Clear 50 10 29 -1.7 44 44 SSE 9 15 30.28 1026 10 16 0.00 0.00
10:53 pm 22:53 Clear 51 10.6 28 -2.2 41 41 S 12 19 30.28 1025 10 16 0.00 0.00
11:53 pm 23:53 Clear 50 10 28 -2.2 43 43 S 9 15 30.27 1025 10 16 0.00 0.00

Powered by AerisWeather